Theta_e
319 319 319 319 319 319 319 319 318 317 317 319 321 323 325 325 324 327 329 329 333 336 335 334 338 339 340 340 342 343 343 342 342 342 346 349 351 352 352 352 351 351 350 350 348
319 319 319 319 319 319 319 320 319 318 317 316 317 320 322 324 324 325 327 330 330 333 332 334 335 336 338 337 340 341 341 340 339 340 345 349 350 352 351 352 353 353 353 351 348
320 320 320 319 319 319 319 320 320 319 318 317 316 317 319 321 323 327 327 329 330 331 333 331 333 337 339 337 338 338 339 338 338 338 341 347 350 350 350 351 350 352 353 351 350
320 320 320 320 320 319 319 320 320 320 319 318 317 316 317 319 327 327 325 327 329 331 335 333 335 339 339 338 337 340 336 336 337 336 341 347 347 349 349 351 350 351 352 351 351
321 320 320 320 320 319 320 321 321 320 319 318 317 316 316 321 322 325 325 324 331 334 332 335 337 339 340 337 336 338 336 336 335 335 341 346 347 347 348 351 350 351 352 352 350
321 321 321 321 320 320 320 321 321 320 319 317 317 316 318 319 320 321 323 322 325 329 332 332 338 338 339 337 337 336 335 335 334 337 343 344 346 347 348 352 351 350 351 351 350
320 320 321 321 321 320 320 321 321 319 317 317 317 316 318 319 318 319 320 322 323 324 330 331 335 338 338 337 335 335 336 335 336 335 339 343 346 347 348 352 351 350 350 350 350
321 321 320 321 321 321 320 321 320 317 316 317 317 316 319 316 316 319 320 321 323 323 325 327 330 335 337 337 336 336 336 337 336 336 336 340 339 345 349 351 352 350 350 351 351
321 321 321 320 321 321 320 321 319 317 317 317 317 318 319 316 316 318 319 321 323 324 325 326 331 336 337 339 337 336 337 336 336 336 337 338 339 346 349 350 352 351 350 350 351
321 321 321 320 321 321 321 321 318 316 316 316 316 320 319 319 320 320 319 320 324 325 326 329 334 340 340 339 339 337 337 336 338 336 341 339 339 346 350 350 351 352 352 351 351
321 321 321 320 320 321 322 321 319 320 318 320 318 318 318 319 319 320 321 321 324 327 332 332 339 341 339 338 337 336 336 336 337 338 342 344 342 344 350 352 351 351 352 352 352
320 321 321 320 320 321 319 320 319 319 323 323 322 319 319 317 321 321 321 325 327 330 331 335 339 339 339 338 337 336 336 337 336 338 342 345 343 345 347 350 351 351 352 352 352
319 321 321 320 320 321 320 320 322 321 324 324 322 322 323 321 322 322 321 326 328 330 330 335 337 337 338 338 338 337 336 336 335 336 342 342 341 345 346 347 351 352 352 352 353
319 320 320 320 323 321 323 323 321 318 326 325 325 323 322 322 323 322 322 327 328 329 330 333 335 337 338 338 338 337 335 333 332 337 339 341 337 338 342 346 347 350 352 350 350
320 319 320 319 320 322 322 322 320 319 326 328 327 323 322 323 322 322 322 325 329 328 330 332 334 335 337 337 337 337 333 332 334 336 337 340 337 337 344 342 346 347 349 348 346
320 319 320 319 320 321 322 322 321 327 322 330 326 325 324 322 322 322 321 324 327 329 330 333 333 336 336 335 334 333 333 333 333 334 335 337 335 335 336 340 343 345 346 344 344
321 319 319 319 323 321 322 322 327 323 326 328 327 324 324 323 323 323 323 325 327 329 331 333 333 334 333 335 333 333 334 336 336 334 334 335 336 335 337 339 341 343 344 344 345
321 319 320 321 321 321 323 327 326 324 330 327 326 324 323 323 323 324 323 323 327 328 330 334 336 334 333 334 334 334 335 336 337 335 334 337 334 336 342 340 341 341 344 343 347
320 320 321 325 323 321 325 327 324 326 328 326 324 326 323 322 323 324 324 324 324 326 330 332 335 335 333 333 334 333 332 333 332 332 332 332 334 337 341 343 343 342 344 344 349
320 321 323 326 325 321 327 326 326 326 328 325 327 324 326 323 322 323 324 325 324 325 328 332 336 333 332 328 329 331 332 332 332 332 334 331 335 335 344 345 343 343 345 345 352
321 323 324 325 321 324 328 327 326 324 325 325 325 326 326 323 324 324 324 325 325 324 328 330 335 331 329 331 332 330 331 331 332 333 333 334 335 338 341 342 345 343 344 347 351
322 327 322 322 326 327 328 326 324 325 324 324 325 327 329 328 325 324 324 325 324 325 328 329 333 333 332 332 334 333 332 332 333 336 333 335 337 340 342 343 343 342 344 348 350
324 324 323 321 329 328 326 325 324 324 324 325 327 328 331 332 332 329 326 325 325 326 330 331 331 334 332 331 333 336 334 332 332 333 337 338 341 342 341 343 343 343 344 350 353
321 331 328 323 324 327 327 326 326 326 326 328 328 329 332 335 335 333 330 327 325 326 328 331 332 333 333 334 333 333 336 336 333 335 337 337 337 342 342 344 343 344 347 352 355
321 332 332 328 328 329 330 330 329 329 331 330 332 332 334 339 335 334 332 328 324 325 329 331 333 332 331 329 329 332 334 337 336 335 336 337 335 342 341 342 342 343 349 353 355
326 327 328 330 330 331 327 332 331 331 335 331 333 333 337 340 340 341 339 332 329 328 329 331 334 334 332 332 331 330 333 334 335 336 337 336 336 341 341 341 342 344 347 353 355
319 319 322 330 333 333 332 331 334 334 332 333 333 336 337 338 336 336 335 335 334 331 329 330 331 333 333 335 332 333 332 334 335 335 336 336 337 342 343 343 343 343 348 352 355
Wind_Speed
12 12 12 11 11 10 10 11 12 12 12 12 12 12 11 10 9 8 6 5 3 2 3 6 5 5 4 4 3 2 3 5 7 6 10 7 5 4 3 7 2 3 2 10 21
12 12 12 12 12 12 12 12 11 12 12 12 12 12 11 11 9 8 9 8 8 5 2 3 5 5 1 3 2 4 3 6 7 8 5 5 3 7 4 4 4 6 10 20 23
13 13 13 13 13 13 13 12 11 11 11 11 11 11 10 9 8 6 6 7 9 8 5 4 5 4 2 2 3 2 4 7 5 8 2 2 5 5 3 4 1 6 16 21 20
14 14 14 15 15 15 14 13 11 10 10 10 10 9 9 5 4 8 7 4 7 9 7 4 4 6 3 3 3 4 3 6 7 6 1 5 3 4 5 7 2 8 17 21 19
15 15 15 15 15 16 16 13 11 9 8 8 8 8 7 7 9 10 3 4 7 10 7 6 6 4 4 5 3 5 9 9 9 7 4 5 8 1 3 5 11 13 18 19 18
16 16 17 17 17 16 17 14 10 8 7 7 7 7 4 12 9 12 11 2 5 7 7 7 5 3 6 5 5 10 11 8 3 2 2 5 3 3 5 11 14 16 17 17 17
17 17 17 18 18 17 17 13 9 7 5 6 6 6 8 11 6 9 11 7 7 4 7 8 5 6 3 6 6 9 6 3 10 4 1 3 5 7 8 14 16 16 16 15 15
18 18 18 18 18 17 17 12 8 6 4 5 5 4 8 8 16 11 9 10 11 8 8 6 7 7 7 6 5 4 6 5 6 8 2 6 3 8 9 14 15 15 15 14 15
18 19 19 19 18 17 16 10 6 4 4 5 4 2 5 5 8 10 14 12 11 8 7 7 8 8 7 10 7 5 3 3 1 3 7 7 5 5 9 13 12 14 14 13 12
19 19 19 19 19 18 13 7 5 4 4 5 7 5 8 6 3 6 13 15 14 11 9 10 10 10 11 10 6 2 4 2 5 7 4 6 7 3 6 10 12 13 12 12 12
20 20 19 19 18 14 8 4 3 2 6 8 0 4 2 2 2 8 11 16 15 15 14 17 12 14 17 4 4 5 6 6 5 5 6 4 5 2 4 9 10 12 13 12 10
20 20 19 19 17 6 9 3 3 2 8 11 14 14 11 7 4 9 14 18 18 14 14 9 17 17 6 5 7 6 7 4 2 4 4 1 4 2 5 9 10 11 11 10 9
20 21 19 19 15 5 9 4 5 5 7 4 8 9 8 10 8 11 18 23 18 18 15 19 18 10 11 10 10 11 8 6 7 4 4 5 10 5 5 7 9 11 9 9 10
19 20 20 18 7 14 2 4 9 3 5 8 5 3 7 8 8 10 19 19 10 16 15 13 7 12 16 15 9 14 5 4 6 5 2 2 5 6 3 8 8 11 11 9 9
18 19 19 18 16 7 7 4 2 2 5 3 6 3 7 12 6 11 17 14 17 11 11 14 13 14 16 16 10 11 1 4 4 7 5 9 6 1 3 7 10 10 11 10 8
18 19 19 19 15 6 6 5 3 6 3 5 5 8 11 14 6 11 15 12 12 10 15 11 8 17 16 9 10 3 8 7 6 7 9 7 5 6 5 4 2 11 12 11 9
19 18 18 16 5 4 6 5 6 6 3 5 2 6 12 13 8 14 16 19 13 15 13 14 14 11 9 13 10 10 13 9 10 9 8 6 5 6 5 4 1 13 14 14 11
19 19 17 13 9 10 7 7 6 2 1 2 3 6 11 12 12 11 14 17 21 17 12 14 17 16 13 15 15 17 16 12 7 10 4 6 6 2 4 2 3 13 17 15 13
19 16 10 6 5 16 10 9 2 2 2 6 5 9 10 10 7 12 14 16 17 16 15 14 15 17 9 13 12 9 10 10 9 7 9 11 3 11 6 4 8 15 17 17 15
20 11 5 9 8 17 9 12 3 2 3 5 3 4 11 15 13 13 13 14 17 20 22 8 13 11 13 8 5 7 1 9 10 9 9 4 4 5 2 8 10 15 18 19 17
13 6 8 6 16 13 9 10 7 9 7 4 1 3 5 6 15 14 11 9 16 20 18 7 14 10 10 13 14 7 10 8 10 5 7 6 2 8 2 2 14 17 21 21 20
4 4 6 13 8 9 10 7 3 9 7 6 6 7 8 3 9 14 12 11 19 24 18 16 12 13 19 7 5 8 9 11 9 12 7 7 3 7 2 2 12 16 20 22 20
7 4 8 3 6 8 6 9 10 10 10 4 5 6 1 5 6 12 13 16 12 23 21 13 9 11 11 9 6 9 8 11 8 4 5 10 5 3 3 3 11 15 20 23 21
4 4 6 8 6 8 7 8 9 8 11 8 8 8 7 10 11 6 13 9 15 21 28 17 15 14 14 14 9 14 10 12 12 9 6 9 4 7 1 6 12 15 20 23 24
3 2 2 6 10 6 4 0 6 5 8 6 5 9 10 6 7 13 12 7 10 13 23 21 17 13 3 3 3 9 8 9 10 6 8 7 2 6 3 4 12 13 18 22 24
4 4 2 9 7 9 6 6 7 6 4 7 8 6 5 2 3 2 6 11 8 10 18 18 16 13 12 5 7 9 8 9 9 5 8 7 8 7 1 2 11 15 19 24 24
4 4 3 2 6 9 10 9 1 2 5 8 5 10 4 2 4 4 4 8 6 16 20 20 13 11 13 6 7 11 12 11 8 8 10 9 3 4 2 3 7 13 17 17 15
Wind_Direction
15 6 359 353 347 334 318 306 295 285 279 272 274 280 289 300 303 299 293 239 207 205 327 344 338 337 3 11 10 337 265 77 46 37 83 139 141 148 110 118 101 117 91 135 156
12 7 359 352 344 336 326 313 300 290 281 272 268 271 282 291 304 279 257 241 225 228 241 305 325 334 359 14 359 306 347 20 329 309 9 160 181 143 167 142 137 92 117 143 151
8 4 359 352 344 338 329 315 304 291 283 275 267 264 271 290 301 202 210 224 209 207 222 270 294 312 301 5 19 19 8 344 335 339 303 212 189 169 169 162 101 146 150 151 156
4 1 356 352 346 340 333 319 306 293 284 277 270 261 258 260 241 174 138 175 190 183 192 250 267 259 308 13 355 281 314 309 308 345 278 206 202 186 205 73 100 138 158 159 164
359 355 353 349 346 341 337 325 309 296 284 275 270 259 243 238 238 198 177 65 159 170 195 228 255 270 314 351 291 260 329 322 314 299 248 206 221 236 169 100 131 139 158 168 171
354 353 351 347 345 341 338 327 311 296 283 273 268 257 234 242 227 219 241 233 163 191 203 213 249 279 294 316 299 329 304 314 344 85 187 235 247 231 158 148 143 148 162 171 177
350 349 348 344 342 340 337 328 311 294 278 268 266 261 245 232 245 216 214 202 201 194 209 218 230 247 312 293 324 297 283 202 47 35 91 240 216 219 160 164 157 157 167 171 179
345 346 345 342 340 337 332 325 309 288 267 257 265 272 254 241 230 204 209 216 219 226 209 225 221 250 260 293 255 275 253 248 66 8 91 229 327 109 173 176 171 164 169 180 187
342 343 343 341 339 332 325 316 299 275 258 257 275 235 254 245 226 224 218 210 202 196 205 194 196 242 225 252 229 225 195 273 340 43 321 231 340 67 172 187 185 179 174 181 194
338 340 342 339 339 334 324 311 298 273 256 265 248 250 228 182 187 198 205 192 184 180 172 195 208 224 223 235 262 105 234 238 342 19 316 274 267 65 177 200 195 192 182 189 195
334 336 339 337 339 344 342 321 296 235 221 236 159 270 150 207 269 189 188 179 194 195 203 200 214 217 224 200 350 292 283 294 29 11 306 329 300 303 200 201 207 202 194 195 196
331 333 335 335 335 321 344 288 299 279 295 246 243 253 252 261 245 192 178 185 194 203 208 184 223 221 243 190 246 255 278 291 131 9 270 295 284 253 215 220 217 217 213 206 210
329 330 331 336 335 333 330 225 280 310 263 202 224 246 227 208 225 187 186 198 197 210 202 225 212 202 197 207 237 235 274 354 332 326 237 267 240 227 185 216 216 224 220 217 219
325 327 327 338 352 334 335 249 326 205 265 133 185 177 192 197 229 199 192 193 200 207 207 225 168 201 215 232 229 260 124 292 303 272 264 264 316 203 238 223 203 209 210 208 206
319 323 323 328 317 321 250 231 346 295 250 110 137 177 179 207 115 182 186 207 195 202 198 193 194 205 218 227 219 270 282 307 285 236 234 167 274 342 169 254 212 203 184 191 192
314 319 316 320 320 291 238 234 214 228 181 132 137 176 176 202 189 148 182 207 218 183 215 231 213 213 222 201 218 113 237 232 232 260 244 98 287 282 38 10 137 181 174 169 173
311 312 308 304 270 286 171 176 226 251 144 128 129 184 201 180 171 174 186 194 190 195 195 211 199 189 208 211 197 219 236 230 213 207 243 101 244 308 13 329 199 181 170 167 171
314 311 304 289 257 201 170 220 246 76 208 127 231 192 198 193 197 185 190 200 213 210 200 206 204 194 189 226 207 212 235 244 240 258 281 151 260 354 56 85 166 179 165 173 162
319 322 305 278 227 183 205 219 246 176 45 349 158 195 187 191 240 203 208 213 197 217 232 205 231 185 193 211 237 170 223 279 297 236 265 270 194 249 194 154 154 160 173 175 151
324 324 235 286 205 173 220 247 203 254 322 326 269 239 193 187 199 200 187 211 203 204 232 213 216 189 178 196 196 278 146 207 221 269 267 241 246 283 131 192 181 175 186 170 161
329 284 301 175 148 187 221 225 243 231 276 292 302 270 246 204 211 204 214 203 204 197 222 220 234 156 166 207 186 184 223 234 300 315 297 253 126 76 13 233 191 185 188 171 169
330 238 159 145 205 202 230 216 245 249 228 266 281 260 274 199 207 229 222 218 197 198 198 219 215 172 198 106 357 288 242 243 231 204 237 317 327 103 10 269 190 187 183 176 180
316 273 205 208 227 205 199 235 241 251 239 240 253 234 313 263 229 222 224 217 189 203 200 186 233 196 149 158 188 224 204 235 245 307 196 278 88 117 65 177 172 181 181 179 181
300 223 174 214 270 277 207 223 223 215 257 249 264 280 270 282 219 230 225 192 205 214 204 193 227 222 191 202 207 199 199 224 230 227 190 221 52 114 110 166 186 189 186 183 181
251 91 324 192 210 224 231 263 224 236 207 210 228 246 307 277 213 212 235 172 203 204 199 212 227 229 108 36 45 305 194 206 244 315 303 39 304 101 359 236 210 192 190 185 188
297 327 311 288 246 229 186 226 254 232 236 199 244 297 313 6 329 274 319 202 176 179 201 213 223 224 245 227 260 256 233 207 226 245 252 271 271 98 72 243 200 204 202 195 195
301 300 292 186 225 229 225 238 261 269 225 257 294 297 237 137 280 309 289 282 275 189 184 200 217 206 221 205 244 236 220 208 217 235 247 244 303 134 167 249 234 220 208 203 191